Regional Weather Roundup
Issued by NWS

Home | Current Version | Previous Version | Text Only | Print | Product List | Glossary Off
Versions: 1 2 3 4 5 6 7 8 9 10 11 12 13 14 15 16 17 18 19 20 21 22 23 24 25 26 27 28 29 30 31 32 33 34 35 36 37 38 39 40 41 42 43 44 45 46 47 48 49 50

054
ASUS43 KDMX 280001
RWRIA

WEATHER ROUNDUP FOR IOWA
NATIONAL WEATHER SERVICE DES MOINES IA
700 PM CDT MON MAR 27 2017

NOTE: "FAIR" INDICATES FEW OR NO CLOUDS BELOW 12,000 FEET WITH NO
SIGNIFICANT WEATHER AND/OR OBSTRUCTIONS TO VISIBILITY.

* - THESE STATIONS ARE NOT NWS STATIONS...THUS NOT UNDER NWS
QUALITY CONTROL.  THEY ALSO DO NOT REPORT WEATHER SUCH
AS PRECIPITATION OR FOG.

IAZ001>003-012>014-020>022-031>034-043>046-280100-
   NORTHWEST IOWA

CITY           SKY/WX    TMP DP  RH WIND       PRES   REMARKS
CARROLL *      CLOUDY    48  43  81 NE8       29.96R
CHEROKEE *     CLOUDY    48  40  73 NE3       29.97R
DENISON *      CLOUDY    48  39  71 N5        29.98R
LE MARS *      CLEAR     50  41  71 E9        29.97S
ORANGE CITY *  CLEAR     50  41  71 E3        29.97R
SHELDON *      CLEAR     50  39  66 E8        29.95S
SIOUX CITY     CLEAR     55  40  56 E10       29.95R
6HR MIN TEMP:  50; 6HR MAX TEMP:  58;

SPENCER        CLOUDY    49  39  68 N8        29.96R
6HR MIN TEMP:  47; 6HR MAX TEMP:  50;

STORM LAKE *   CLOUDY    46  39  76 NE6       29.96R
$$

IAZ055>058-069>071-079>083-090>094-280100-
   SOUTHWEST IOWA

CITY           SKY/WX    TMP DP  RH WIND       PRES   REMARKS
ATLANTIC *     CLOUDY    50  41  71 N6        29.96R
AUDUBON *      CLOUDY    48  41  76 N6        29.97R
CLARINDA *     CLOUDY    50  43  76 N6        29.97S
COUNCIL BLFS * CLOUDY    50  43  76 CALM      29.96R
CRESTON *      CLOUDY    48  43  81 N5G13     29.96R
HARLAN  *      CLOUDY    48  41  76 CALM      29.99S
LAMONI         CLOUDY    50  44  80 NE5       29.94R
6HR MIN TEMP:  47; 6HR MAX TEMP:  52;

RED OAK *      CLOUDY    52  43  71 N5        29.96R
SHENANDOAH *   CLOUDY    50  43  76 NE6       29.97R
$$

IAZ047>049-059>061-072>074-084-280100-
   CENTRAL IOWA

CITY           SKY/WX    TMP DP  RH WIND       PRES   REMARKS
AMES           CLOUDY    48  42  80 N7        29.95R
6HR MIN TEMP:  47; 6HR MAX TEMP:  51;

ANKENY *       CLOUDY    50  41  71 MISG      29.95R
BOONE *        CLOUDY    46  43  87 N5        29.95R
CHARITON *     CLOUDY    48  45  87 N6        29.94R
DES MOINES     CLOUDY    51  42  71 N7        29.95R
6HR MIN TEMP:  48; 6HR MAX TEMP:  52;

GRINNELL*      CLOUDY    47  42  82 N7        29.95R
MARSHALLTOWN   CLOUDY    48  42  80 N8        29.94R
6HR MIN TEMP:  46; 6HR MAX TEMP:  49;

NEWTON *       CLOUDY    48  43  81 N5        29.94R
PELLA *        CLOUDY    49  44  82 N5        29.95R
PERRY *        CLOUDY    47  42  81 N8        29.96R
$$

IAZ004>006-015-016-023>025-035-036-280100-
   NORTH CENTRAL IOWA

CITY           SKY/WX    TMP DP  RH WIND       PRES   REMARKS
ALGONA *       CLOUDY    48  43  81 NE8       29.96R
CLARION *      CLOUDY    48  46  93 N7        29.96R
ESTHERVILLE    MOCLDY    48  41  76 E5        29.96R
6HR MIN TEMP:  46; 6HR MAX TEMP:  50;

FORT DODGE *   CLOUDY    48  39  71 N6        29.97R
MASON CITY     CLOUDY    46  40  79 N8        29.96R
6HR MIN TEMP:  44; 6HR MAX TEMP:  48;

FOREST CITY *  MOCLDY    46  37  71 N6        29.95S
WEBSTER CITY * CLOUDY    48  43  81 N6        29.94R
IOWA FALLS *   CLOUDY    48  42  80 N5        29.96R
$$

IAZ007>011-017>019-026>030-037>042-050>054-066-280100-
   NORTHEAST IOWA

CITY           SKY/WX    TMP DP  RH WIND       PRES   REMARKS
CEDAR RAPIDS   CLOUDY    50  46  86 N6        29.91S
6HR MIN TEMP:  47; 6HR MAX TEMP:  50;

CHARLES CITY * CLOUDY    48  45  87 N6        29.95S
CLINTON *      CLOUDY    49  46  90 N9        29.92S
DECORAH *      CLOUDY    46  43  87 CALM      29.94R
DUBUQUE        CLOUDY    48  44  86 N7        29.93R
6HR MIN TEMP:  48; 6HR MAX TEMP:  50;

MONTICELLO *   CLOUDY    50  45  81 CALM      29.92S
OELWEIN *      CLOUDY    48  45  87 N7        29.93S
WATERLOO       CLOUDY    49  40  71 N9        29.94R
6HR MIN TEMP:  47; 6HR MAX TEMP:  51;

$$

IAZ064-065-067-068-078-280100-
   EAST CENTRAL IOWA

CITY           SKY/WX    TMP DP  RH WIND       PRES   REMARKS
DAVENPORT      CLOUDY    50  46  86 N8        29.92R
6HR MIN TEMP:  49; 6HR MAX TEMP:  52; 6HR PCP: TRACE;

IOWA CITY      CLOUDY    52  45  77 N7        29.94R
6HR MIN TEMP:  52; 6HR MAX TEMP:  54;

MUSCATINE *    CLOUDY    52  46  82 N5        29.93R
QUAD CITIES    CLOUDY    52  45  77 NE8       29.91R
6HR MIN TEMP:  52; 6HR MAX TEMP:  54; 6HR PCP: TRACE;

$$

IAZ062-063-075>077-085>089-095>099-280100-
   SOUTHEAST IOWA

CITY           SKY/WX    TMP DP  RH WIND       PRES   REMARKS
BURLINGTON     CLOUDY    51  48  89 N7        29.91R
6HR MIN TEMP:  51; 6HR MAX TEMP:  53; 6HR PCP:  0.02;

FAIRFIELD *    CLOUDY    50  46  87 N8        29.93R
FORT MADISON * CLOUDY    52  48  87 N9        29.93R
KEOKUK *       CLOUDY    52  48  87 N6        29.91R
OSKALOOSA *    CLOUDY    48  44  87 N7        29.93R
OTTUMWA        CLOUDY    50  46  86 N7        29.93R
6HR MIN TEMP:  50; 6HR MAX TEMP:  51;

WASHINGTON *   CLOUDY    50  48  93 N7        29.94R FOG
$$

ABBREVIATIONS USED IN REMARKS
   TC - TEMPERATURES IN CELSIUS
  WCI - WIND CHILL INDEX
   HX - HEAT INDEX
  VSB - VISIBILITY
$$





USA.gov is the U.S. government's official web portal to all federal, state and local government web resources and services.